Find Kosmos-2366

NORAD ID: 25892 Int'l Des: 1999-045 Owner: VMFR Country: RU operational
LEOCIRCULARPOLAR

Live Position

Loading 3D Globe...

About Kosmos-2366

Description loading...

Upcoming Passes

Passes for default location (London). Set your location on the main map for personalized predictions.

Altitude History

Loading altitude history...

Two-Line Element Set

1 25892U 99045A 26106.95601184 .00000065 00000-0 52363-4 0 9996
2 25892 82.9315 169.6370 0032049 166.4152 6.9388 13.74689360336532
Epoch: Apr 16, 2026 • Age: 8 hours

Current Status

Altitude 991.0 km
Velocity 7.37 km/s
Sub-Earth Point 82.78°N, 68.15°W
Launch Date Aug 26, 1999
Age 26.6 years
Type other

Technical Details

Classification Payload
Mass 800.00 kg
Dry Mass 800.00 kg
Total Mass 800.00 kg
Length 5.10 m
Diameter 2.00 m
Span 17.00 m
Shape Cyl + Ant
Manufacturer POL
Bus Type KAUR-1 11F627
Phase Status Unknown Transfer Status
Owner/State VMFR/RU

Most Searched